Hourly Data Report for September 29, 2007

PETERBOROUGH AWOS
ONTARIO

44°14'00.000" N
78°22'00.000" W
191.40 m
6166420

Download Data

Hourly Data (September 2007)
Hourly Data Report for September 29, 2007
TIME
LST
Temp Definition
°C
Dew Point Definition
°C
Rel Hum Definition
%
Precip. Amount Definition
mm

Wind Dir Definition
10's deg

Wind Spd Definition
km/h
Visibility Definition
km
Stn Press Definition
kPa
Hmdx Definition


Wind Chill Definition


Weather Definition


00:00 10.8 9.1 89     0 15.0 99.93      
01:00 10.2 9.0 92   29 4 15.0 100.00      
02:00 7.1 7.0 99   18 4 15.0 100.02      
03:00 7.2 7.2 100   22 4 15.0 100.08      
04:00 7.6 7.6 100   32 4 15.0 100.16      
05:00 7.3 7.1 99   28 7 15.0 100.26      
06:00 5.1 5.0 99   21 4 0.5 100.37      
07:00 6.7 6.7 100   25 7 6.4 100.49      
08:00 10.0 9.7 98   24 6 15.0 100.59      
09:00 12.8 9.8 82   3 9 15.0 100.67      
10:00 14.1 10.1 77     0 15.0 100.64      
11:00 16.0 10.2 68   26 4 15.0 100.65      
12:00 16.8 9.6 62   32 7 15.0 100.66      
13:00 17.3 9.3 59   1 9 15.0 100.59      
14:00 17.7 9.3 58   28 6 15.0 100.59      
15:00 18.9 8.4 50   31 11 15.0 100.55      
16:00 18.3 8.2 52   36 4 15.0 100.56      
17:00 18.0 8.7 55   32 6 15.0 100.54      
18:00 15.9 8.6 62   31 4 15.0 100.54      
19:00 10.3 9.2 93   16 4 15.0 100.61      
20:00 9.9 8.9 93     0 15.0 100.64      
21:00 8.5 8.4 99     0 15.0 100.64      
22:00 7.6 7.4 99     0 15.0 100.67      
23:00 8.2 8.2 100     0 12.9 100.70      

Notes on Data Quality.

Legend

  • E = Estimated
  • M = Missing
  • NA = Not Available*
  • [empty] = Indicates an unobserved value
Date modified: